Regional Weather Roundup
Issued by NWS Sioux Falls, SD

Home | Current Version | Previous Version | Graphics & Text | Print | Product List | Glossary On
Versions: 1 2 3 4 5 6 7 8 9 10 11 12 13 14 15 16 17 18 19 20 21 22 23 24 25 26 27 28 29 30 31 32 33 34 35 36 37 38 39 40 41 42 43 44 45 46 47 48 49 50
000
ASUS43 KFSD 250802
RWRFSD

WEATHER ROUNDUP FOR SE SOUTH DAKOTA/SW MINNESOTA/NW IOWA
NATIONAL WEATHER SERVICE SIOUX FALLS SD
300 AM CDT TUE JUL 25 2017

NOTE: "FAIR" INDICATES FEW OR NO CLOUDS BELOW 12,000 FEET WITH NO
SIGNIFICANT WEATHER AND OR OBSTRUCTIONS TO VISIBILITY.


SDZ038>040-050-052>070-250900-
SOUTHEAST SOUTH DAKOTA

CITY           SKY/WX    TMP DP  RH WIND       PRES   REMARKS
BROOKINGS      CLOUDY    69  64  84 SE20G25   29.92F
CHAMBERLAIN    CLEAR     82  71  69 SW18      29.80S
HURON          CLEAR     71  67  87 MISG      29.83F
MADISON        FAIR      66  66 100 SE13G18   29.91F
MITCHELL       CLEAR     75  68  78 SE16      29.84S
SIOUX FALLS    CLEAR     71  67  87 SE8       29.93F
WINNER         FAIR      79  69  71 S25G32    29.82S
YANKTON        PTCLDY    73  67  81 SE8       29.90R
$$

MNZ071-072-080-081-089-090-097-098-250900-
SOUTHWEST MINNESOTA

CITY           SKY/WX    TMP DP  RH WIND       PRES   REMARKS
FAIRMONT       CLEAR     66  64  93 SE14      30.03F
JACKSON        CLEAR     66  61  82 S13       30.03S
LUVERNE        CLEAR     66  61  82 SE7       29.97F
MARSHALL       CLOUDY    69  64  84 SE8       29.98S
MONTEVIDEO     MOCLDY    72  63  73 SE3       29.96F
PIPESTONE      CLOUDY    68  63  83 SE8       29.96F
REDWOOD FALLS  CLOUDY    68  63  84 S21       29.95F
TRACY          CLOUDY    68  65  89 S8        29.99F
WINDOM         PTCLDY    68  61  77 SE10      30.02S
WORTHINGTON    PTCLDY    66  62  87 SE12      30.00F
$$

IAZ001>003-012>014-020>022-031-032-NEZ013-014-SDZ071-250900-
NORTHWEST IOWA

CITY           SKY/WX    TMP DP  RH WIND       PRES   REMARKS
CHEROKEE       CLOUDY    69  65  86 S6        29.99S
DENISON        PTCLDY    70  64  83 S13       30.01F
ESTHERVILLE    PTCLDY    65  64  97 SE9       30.02S
ORANGE CITY    PTCLDY    70  64  83 SE6       29.96F
SHELDON        PTCLDY    68  64  88 SE9       29.96S
SIOUX CITY     CLOUDY    71  67  87 SE8       29.95F
SPENCER        CLOUDY    67  63  87 SE10      30.01S
STORM LAKE     PTCLDY    66  63  88 SE10G16   30.00F
$$

ABBREVIATIONS USED IN REMARKS
   TC - TEMPERATURE IN CELSIUS
  WCI - WIND CHILL INDEX
   HX - HEAT INDEX
  VSB - VISIBILITY





USA.gov is the U.S. government's official web portal to all federal, state and local government web resources and services.